SL-14 DEB, 45273

Orbit data source: Space-Track

SL-14 DEB, 45273 is space debris in LEO originally from a launch on Thu, 15 Aug 1991 UTC launched from the Plesetsk Missile And Space Complex (PKMTR). Debris objects in space refer to the collection of defunct objects orbiting the Earth. Examples of debris include non-operational satellites, rocket bodies, and fragments generated from explosions, collisions, or faulty payload assembly.

Loading next visibility...
Identifier
45273, 1991-056K
Orbit
LEO
Country
Flag of CISCIS
Related business
Manufacturer
Unknown
Mission
Spacecraft
Bus & Motor
Unknown
Mass
Unknown
Launch date (UTC)
1991-08-15 (34 years ago)
Launch vehicle
Unknown
Launch site
Plesetsk Missile And Space Complex (PKMTR)
Object type
Payload
Rocket body
Debris
Shape & HBR
Unknown shape, 0.1 m
Radar Cross Section
Small (<0.1 m²)

Expand to show TLE details & history
Last TLE update: 8 hours ago

TLE from 8 hours ago
0 SL-14 DEB
1 45273U 91056K   26035.80667156  .00001743  00000-0  27087-2 0  9998
2 45273  82.5672 161.2841 0117808 126.7929 234.4092 13.47564217293094
Epoch: 2026-02-04T19:21Z
TLE epoch observation values (Epoch: 2026-02-04T19:21:36.422Z)
Latitude
0.00002°
Longitude
95.91438°
Altitude
1,135.917 km
Speed
7.259 km/s
True Right ascension
10h 45m 08s
True Declination
0° 00' 00"
Sunlit
Object was in full shadow at epoch
Visualization orbit readout
Latitude
Unknown
Longitude
Unknown
Altitude
Unknown
Speed
Unknown
Apparent Right ascension
Unknown
Apparent Declination
Unknown
Sunlit
N/A
Visualization observer readout
Local Sidereal Time
05:33:27
Azimuth
Unknown
Elevation
Unknown
Doppler factor
Unknown
Orbital elements
Apogee altitude
1,166.279 km
Perigee altitude
990.59 km
Semi-major axis
7,456.572 km
Eccentricity
0.01178
Inclination
82.5672°
RAAN
161.2841°
Arg. of periapsis
126.7929°
True anomaly
233.3208°
Mean anomaly
234.4092°
Eccentric anomaly
233.86406°
Mean motion
3.37081 °/min
Orbital period
106.8 mins
BSTAR
0.0027087
Loading maneuver chart data...
Computing Atmospheric mass density...
Loading historical data...
Loading historical data...
Loading historical data...
Loading historical data...
Loading historical data...
Loading historical data...
Loading historical data...

Documentation

Showing up to 5 results
|